H-2A R/B (38341 NORAD) Tracking and Keplerian Element Data

This shows tracking and keplerian element data for the satellite.

Feedback or suggestion? Click here.




ElementValue
Catalog38341
NameH-2A R/B
Epoch Orbit67169
Epoch Day286.79031646
Epoch Year2024
RAAN205.7963
Inclination98.4173
Eccentricity0.0048891
Argument of Perigee184.1853
Mean Anonmoly175.8961
Mean Motion14.90067292
Decay Rate7.17E-05
L11 38341U 12025E 24286.79031646 .00007170 00000+0 73199-3 0 9993
L22 38341 98.4173 205.7963 0048891 184.1853 175.8961 14.90067292671691



Live tracking and technical data element details for H-2A R/B (NORAD 38341). H-2A R/B can be tracked NOW for your location showing map with azimuth and elevation plus other details from your city location.







IsCatalogInMostPopularTable: catalog: 38341, numindb: 913
Update: records affected: 1



GetName: 38341 H-2A R/B

Hit Count: updated at: Thu, 23 Jan 2025 13:26:59 GMT